Mumbai, India

8:41 PM IST on June 23, 2017 (GMT +0530)
Chhatrapati Shivaji International

Weather History for VABB - November, 2012

Change the Weather History Date:

Friday, November 9, 2012

  Actual Average Record
Temperature  
Mean Temperature 75 °F -  
Max Temperature 88 °F 89 °F 98 °F (2003)
Min Temperature 62 °F 71 °F 62 °F (2012)
Cooling Degree Days 10    
Growing Degree Days 25 (Base 50)    
Moisture  
Dew Point 67 °F    
Average Humidity 66    
Maximum Humidity 93    
Minimum Humidity 39    
Precipitation  
Precipitation 0.00 in - - ()
Sea Level Pressure  
Sea Level Pressure 29.84 in    
Wind  
Wind Speed 3 mph ()    
Max Wind Speed 10 mph    
Max Gust Speed -    
Visibility 1.3 miles    
Events      
Averages and records for this station are not official NWS values.
T = Trace of Precipitation, MM = Missing Value Source: Averaged Metar Reports

Daily Weather History Graph

Daily Weather History Graph

Search for Another Location

Airport or City:

Trip Planner

Search our weather history database for the weather conditions in past years. The results will help you decide how hot, cold, wet, or windy it might be!

Date:

Astronomy

Nov. 09, 2012 Rise Set
Actual Time 6:42 AM IST 6:01 PM IST
Civil Twilight 6:20 AM IST 6:24 PM IST
Nautical Twilight 5:53 AM IST 6:50 PM IST
Astronomical Twilight 5:27 AM IST 7:16 PM IST
Moon 1:54 AM IST (11/9) 2:23 PM IST (11/9)
Length of Visible Light 12h 04m
Length of Day
11h 18m
Waning Crescent, 27% of the Moon is Illuminated
Nov 9
Waning Crescent
Nov 14
New
Nov 20
First Quarter
Nov 28
Full
Dec 6
Last Quarter

Hourly Weather History & Observations

Time (IST) Temp. Heat Index Dew Point Humidity Pressure Visibility Wind Dir Wind Speed Gust Speed Precip Events Conditions
12:10 AM 77.0 °F - 68.0 °F 74% 29.83 in 1.6 mi SE 3.5 mph - N/A   Smoke
12:40 AM 77.0 °F - 69.8 °F 78% 29.83 in 1.6 mi Calm Calm - N/A   Haze
1:10 AM 75.2 °F - 69.8 °F 83% 29.83 in 1.4 mi Calm Calm - N/A   Haze
1:40 AM 75.2 °F - 68.0 °F 78% 29.83 in 1.5 mi ENE 3.5 mph - N/A   Haze
2:10 AM 77.0 °F - 68.0 °F 74% 29.83 in 1.4 mi NE 3.5 mph - N/A   Haze
2:40 AM 75.2 °F - 68.0 °F 78% 29.83 in 1.4 mi East 4.6 mph - N/A   Haze
3:10 AM 75.2 °F - 68.0 °F 78% 29.80 in 1.4 mi East 4.6 mph - N/A   Haze
3:40 AM 75.2 °F - 68.0 °F 78% 29.80 in 1.7 mi NE 3.5 mph - N/A   Haze
4:10 AM 75.2 °F - 68.0 °F 78% 29.80 in 1.2 mi Calm Calm - N/A   Haze
4:40 AM 75.2 °F - 68.0 °F 78% 29.80 in 1.1 mi East 5.8 mph - N/A   Unknown
5:10 AM 73.4 °F - 68.0 °F 83% 29.80 in 1.1 mi East 3.5 mph - N/A   Unknown
5:30 AM 66 °F - 64 °F 93% 29.82 in 1 mi Calm Calm - -   Haze
5:40 AM 71.6 °F - 66.2 °F 83% 29.83 in 1.1 mi Variable 3.5 mph - N/A   Haze
6:10 AM 71.6 °F - 68.0 °F 88% 29.83 in 1.0 mi Calm Calm - N/A   Haze
6:40 AM 73.4 °F - 68.0 °F 83% 29.86 in 1.1 mi Calm Calm - N/A   Haze
8:10 AM 75.2 °F - 69.8 °F 83% 29.89 in 0.7 mi SE 4.6 mph - N/A   Mist
8:30 AM 72 °F - 70 °F 90% 29.89 in 1 mi Calm Calm - -   Haze
8:40 AM 77.0 °F - 69.8 °F 78% 29.89 in 0.7 mi ESE 4.6 mph - N/A   Mist
9:10 AM 78.8 °F - 69.8 °F 74% 29.89 in 0.9 mi ESE 5.8 mph - N/A   Haze
10:10 AM 82.4 °F 85.4 °F 68.0 °F 62% 29.89 in 1.4 mi Variable 2.3 mph - N/A   Haze
10:40 AM 84.2 °F 86.6 °F 66.2 °F 55% 29.89 in 1.4 mi North 3.5 mph - N/A   Smoke
11:10 AM 86.0 °F 88.2 °F 66.2 °F 51% 29.86 in 1.5 mi NE 5.8 mph - N/A   Smoke
11:30 AM 86 °F - 65 °F 39% 29.87 in 1 mi Calm Calm - -   Smoke
11:40 AM 87.8 °F 90.4 °F 66.2 °F 49% 29.86 in 1.7 mi Calm Calm - N/A   Smoke
12:40 PM 87.8 °F 90.4 °F 66.2 °F 49% 29.83 in - West 10.4 mph - N/A   Smoke
1:10 PM 86.0 °F 88.2 °F 66.2 °F 51% 29.83 in - West 10.4 mph - N/A   Smoke
2:10 PM 86.0 °F 88.2 °F 66.2 °F 51% 29.80 in 1.3 mi NW 8.1 mph - N/A   Smoke
3:10 PM 86.0 °F 90.4 °F 69.8 °F 58% 29.80 in 1.2 mi NW 9.2 mph - N/A   Smoke
3:40 PM 86.0 °F 89.4 °F 68.0 °F 55% 29.77 in 1.4 mi WNW 10.4 mph - N/A   Smoke
4:10 PM 86.0 °F 88.2 °F 66.2 °F 51% 29.80 in 1.8 mi WNW 9.2 mph - N/A   Smoke
4:40 PM 86.0 °F 88.2 °F 66.2 °F 51% 29.77 in 1.9 mi WNW 5.8 mph - N/A   Smoke
5:10 PM 86.0 °F 87.3 °F 64.4 °F 48% 29.80 in 1.9 mi West 9.2 mph - N/A   Smoke
5:30 PM 84 °F - 67 °F 46% 29.79 in 1 mi West 5.8 mph - -   Smoke
5:40 PM 84.2 °F 86.6 °F 66.2 °F 55% 29.80 in 1.9 mi WNW 9.2 mph - N/A   Smoke
6:10 PM 82.4 °F 85.4 °F 68.0 °F 62% 29.80 in 1.7 mi West 8.1 mph - N/A   Smoke
6:40 PM 82.4 °F 85.4 °F 68.0 °F 62% 29.83 in 1.6 mi NW 6.9 mph - N/A   Smoke
7:10 PM 82.4 °F 85.4 °F 68.0 °F 62% 29.83 in 1.6 mi WNW 6.9 mph - N/A   Smoke
7:40 PM 82.4 °F 85.4 °F 68.0 °F 62% 29.86 in 1.6 mi NW 3.5 mph - N/A   Smoke
8:10 PM 82.4 °F 85.4 °F 68.0 °F 62% 29.86 in 1.4 mi NNW 4.6 mph - N/A   Smoke
8:30 PM 76 °F - 68 °F 70% 29.86 in 1 mi Calm Calm - -   Haze
8:40 PM 82.4 °F 84.6 °F 66.2 °F 58% 29.86 in 1.3 mi NNW 4.6 mph - N/A   Smoke
9:10 PM 82.4 °F 84.6 °F 66.2 °F 58% 29.86 in 1.3 mi NNW 4.6 mph - N/A   Smoke
9:40 PM 80.6 °F 82.7 °F 66.2 °F 61% 29.86 in 1.3 mi Calm Calm - N/A   Smoke
10:10 PM 82.4 °F 83.9 °F 64.4 °F 54% 29.86 in 1.4 mi SSW 3.5 mph - N/A   Smoke
10:40 PM 82.4 °F 83.4 °F 62.6 °F 51% 29.86 in 1.4 mi Variable 4.6 mph - N/A   Smoke
11:10 PM 78.8 °F - 66.2 °F 65% 29.86 in 1.1 mi Calm Calm - N/A   Smoke
11:30 PM 72 °F - 67 °F 80% 29.87 in 1 mi Calm Calm - -   Haze
11:40 PM 78.8 °F - 66.2 °F 65% 29.86 in 1.1 mi Calm Calm - N/A   Smoke